| time (UTC) | temp F | wind direction | speed MPH | gust MPH | rain 1hr in | rain 24hr in | rain mn in | humidity % | barometer mb |
| 20260508173038 | 50 | 245 | 1.0 | 8.0 | 0.00 | 0.00 | 0.00 | 42 | 1009.0 |
| 20260508171535 | 49 | 327 | 1.0 | 6.0 | 0.00 | 0.00 | 0.00 | 46 | 1009.1 |
| 20260508170036 | 48 | 307 | 0.0 | 6.0 | 0.00 | 0.00 | 0.00 | 45 | 1009.1 |
| 20260508164538 | 48 | 91 | 1.0 | 5.0 | 0.00 | 0.00 | 0.00 | 44 | 1009.1 |
| 20260508163034 | 48 | 330 | 1.0 | 6.0 | 0.00 | 0.00 | 0.00 | 45 | 1009.3 |
| 20260508161534 | 49 | 124 | 1.0 | 5.0 | 0.00 | 0.00 | 0.00 | 43 | 1009.2 |
| 20260508160036 | 50 | 353 | 1.0 | 5.0 | 0.00 | 0.00 | 0.00 | 42 | 1009.0 |
| 20260508154536 | 50 | 315 | 2.0 | 8.0 | 0.00 | 0.00 | 0.00 | 42 | 1008.9 |
| 20260508153036 | 49 | 107 | 2.0 | 7.0 | 0.00 | 0.00 | 0.00 | 41 | 1008.8 |
| 20260508151534 | 49 | 301 | 1.0 | 5.0 | 0.00 | 0.00 | 0.00 | 43 | 1008.8 |
| 20260508150042 | 50 | 353 | 2.0 | 6.0 | 0.00 | 0.00 | 0.00 | 41 | 1008.9 |
| 20260508144538 | 50 | 239 | 2.0 | 9.0 | 0.00 | 0.00 | 0.00 | 38 | 1008.8 |
| 20260508143036 | 50 | 112 | 2.0 | 6.0 | 0.00 | 0.00 | 0.00 | 40 | 1008.7 |
| 20260508141615 | 50 | 249 | 1.0 | 6.0 | 0.00 | 0.00 | 0.00 | 38 | 1008.9 |
| 20260508141537 | 50 | 348 | 1.0 | 8.0 | 0.00 | 0.00 | 0.00 | 38 | 1008.8 |
| 20260508141100 | 50 | 70 | 1.0 | 8.0 | 0.00 | 0.00 | 0.00 | 38 | 1008.8 |
| 20260508140603 | 49 | 196 | 1.0 | 8.0 | 0.00 | 0.00 | 0.00 | 40 | 1009.0 |
| 20260508140109 | 48 | 348 | 2.0 | 8.0 | 0.00 | 0.00 | 0.00 | 38 | 1008.8 |
| 20260508140035 | 48 | 340 | 2.0 | 10.0 | 0.00 | 0.00 | 0.00 | 38 | 1008.8 |
| 20260508135610 | 48 | 353 | 2.0 | 8.0 | 0.00 | 0.00 | 0.00 | 38 | 1008.9 |
| 20260508135102 | 48 | 80 | 2.0 | 8.0 | 0.00 | 0.00 | 0.00 | 39 | 1009.0 |
| 20260508134555 | 48 | 226 | 2.0 | 8.0 | 0.00 | 0.00 | 0.00 | 40 | 1009.0 |
| 20260508134538 | 47 | 303 | 2.0 | 8.0 | 0.00 | 0.00 | 0.00 | 40 | 1008.9 |
| 20260508134046 | 47 | 288 | 1.0 | 8.0 | 0.00 | 0.00 | 0.00 | 44 | 1009.0 |
| 20260508133533 | 47 | 12 | 2.0 | 8.0 | 0.00 | 0.00 | 0.00 | 44 | 1009.0 |
| 20260508133038 | 46 | 93 | 2.0 | 9.0 | 0.00 | 0.00 | 0.00 | 44 | 1008.8 |
| 20260508133026 | 46 | 109 | 1.0 | 7.0 | 0.00 | 0.00 | 0.00 | 44 | 1008.8 |
| 20260508132527 | 46 | 120 | 0.0 | 5.0 | 0.00 | 0.00 | 0.00 | 45 | 1008.9 |
| 20260508132022 | 46 | 149 | 0.0 | 3.0 | 0.00 | 0.00 | 0.00 | 47 | 1009.0 |
| 20260508131535 | 45 | 332 | 0.0 | 4.0 | 0.00 | 0.00 | 0.00 | 51 | 1009.0 |
| 20260508131519 | 46 | 332 | 0.0 | 2.0 | 0.00 | 0.00 | 0.00 | 51 | 1009.0 |
| 20260508131011 | 45 | 353 | 0.0 | 5.0 | 0.00 | 0.00 | 0.00 | 48 | 1009.0 |
| 20260508130502 | 45 | 357 | 0.0 | 5.0 | 0.00 | 0.00 | 0.00 | 49 | 1009.1 |
| 20260508130056 | 44 | 0 | 0.0 | 10.0 | 0.00 | 0.00 | 0.00 | 51 | 1009.1 |
| 20260508125955 | 45 | 38 | 0.0 | 1.0 | 0.00 | 0.00 | 0.00 | 51 | 1009.1 |
| 20260508124535 | 43 | 0 | 0.0 | 3.0 | 0.00 | 0.00 | 0.00 | 61 | 1009.2 |
| 20260508123035 | 42 | 0 | 0.0 | 2.0 | 0.00 | 0.00 | 0.00 | 63 | 1009.2 |
| 20260508121538 | 42 | 0 | 0.0 | 4.0 | 0.00 | 0.00 | 0.00 | 72 | 1009.2 |
| 20260508120035 | 40 | 0 | 1.0 | 4.0 | 0.00 | 0.00 | 0.00 | 69 | 1009.2 |
| 20260508114535 | 38 | 0 | 0.0 | 3.0 | 0.00 | 0.00 | 0.00 | 76 | 1009.1 |
| 20260508113041 | 34 | 0 | 0.0 | 2.0 | 0.00 | 0.00 | 0.00 | 87 | 1009.0 |
| 20260508111534 | 32 | 0 | 0.0 | 0.0 | 0.00 | 0.00 | 0.00 | 91 | 1008.8 |
| 20260508110037 | 31 | 0 | 0.0 | 0.0 | 0.00 | 0.00 | 0.00 | 92 | 1008.8 |
| 20260508104603 | 30 | 0 | 0.0 | 0.0 | 0.00 | 0.00 | 0.00 | 92 | 1008.7 |
| 20260508103044 | 30 | 0 | 0.0 | 0.0 | 0.00 | 0.00 | 0.00 | 92 | 1008.5 |
| 20260508101535 | 30 | 0 | 0.0 | 0.0 | 0.00 | 0.00 | 0.00 | 92 | 1008.5 |
| 20260508100034 | 29 | 0 | 0.0 | 0.0 | 0.00 | 0.00 | 0.00 | 92 | 1008.3 |
| 20260508094543 | 29 | 0 | 0.0 | 0.0 | 0.00 | 0.00 | 0.00 | 92 | 1008.3 |
| 20260508093035 | 29 | 0 | 0.0 | 0.0 | 0.00 | 0.00 | 0.00 | 92 | 1008.2 |
| 20260508091536 | 29 | 0 | 0.0 | 0.0 | 0.00 | 0.00 | 0.00 | 92 | 1008.1 |
| 20260508090037 | 29 | 0 | 0.0 | 0.0 | 0.00 | 0.00 | 0.00 | 91 | 1007.9 |
| 20260508084535 | 29 | 0 | 0.0 | 0.0 | 0.00 | 0.00 | 0.00 | 91 | 1007.9 |
| 20260508083044 | 29 | 0 | 0.0 | 0.0 | 0.00 | 0.00 | 0.00 | 91 | 1008.0 |
| 20260508081542 | 29 | 0 | 0.0 | 0.0 | 0.00 | 0.00 | 0.00 | 91 | 1007.8 |
| 20260508080036 | 29 | 0 | 0.0 | 0.0 | 0.00 | 0.00 | 0.00 | 91 | 1007.7 |
| 20260508074536 | 29 | 0 | 0.0 | 0.0 | 0.00 | 0.00 | 0.00 | 90 | 1007.6 |
| 20260508073034 | 29 | 0 | 0.0 | 0.0 | 0.00 | 0.00 | 0.00 | 90 | 1007.6 |
| 20260508071538 | 30 | 0 | 0.0 | 0.0 | 0.00 | 0.00 | 0.00 | 89 | 1007.6 |
| 20260508070113 | 30 | 0 | 0.0 | 0.0 | 0.00 | 0.00 | 0.00 | 89 | 1007.8 |
| 20260508064538 | 31 | 0 | 0.0 | 0.0 | 0.00 | 0.00 | 0.00 | 89 | 1007.9 |
| 20260508063037 | 31 | 0 | 0.0 | 0.0 | 0.00 | 0.00 | 0.00 | 88 | 1007.8 |
| 20260508061537 | 31 | 0 | 0.0 | 0.0 | 0.00 | 0.00 | 0.00 | 88 | 1007.8 |
| 20260508060040 | 31 | 0 | 0.0 | 0.0 | 0.00 | 0.00 | 0.00 | 88 | 1007.9 |
| 20260508054537 | 31 | 0 | 0.0 | 0.0 | 0.00 | 0.00 | 0.00 | 87 | 1007.9 |
| 20260508053038 | 32 | 0 | 0.0 | 0.0 | 0.00 | 0.00 | 0.00 | 87 | 1008.1 |
| 20260508051535 | 32 | 0 | 0.0 | 0.0 | 0.00 | 0.00 | 0.00 | 87 | 1008.5 |
| 20260508050036 | 32 | 0 | 0.0 | 0.0 | 0.00 | 0.00 | 0.00 | 86 | 1008.5 |
| 20260508044535 | 33 | 0 | 0.0 | 0.0 | 0.00 | 0.00 | 0.00 | 85 | 1008.5 |
| 20260508043053 | 33 | 0 | 0.0 | 0.0 | 0.00 | 0.00 | 0.00 | 84 | 1008.4 |
| 20260508041537 | 34 | 0 | 0.0 | 0.0 | 0.00 | 0.00 | 0.00 | 83 | 1008.5 |
| 20260508040036 | 34 | 0 | 0.0 | 0.0 | 0.00 | 0.00 | 0.00 | 82 | 1008.4 |
| 20260508034535 | 35 | 0 | 0.0 | 0.0 | 0.00 | 0.00 | 0.00 | 81 | 1008.4 |
| 20260508033038 | 36 | 0 | 0.0 | 0.0 | 0.00 | 0.00 | 0.00 | 79 | 1008.3 |
| 20260508031536 | 36 | 0 | 0.0 | 0.0 | 0.00 | 0.00 | 0.00 | 77 | 1008.3 |
| 20260508030048 | 37 | 0 | 0.0 | 0.0 | 0.00 | 0.00 | 0.00 | 74 | 1008.4 |
| 20260508024536 | 38 | 0 | 0.0 | 0.0 | 0.00 | 0.04 | 0.00 | 72 | 1008.4 |
| 20260508023037 | 39 | 0 | 0.0 | 0.0 | 0.00 | 0.04 | 0.00 | 70 | 1008.3 |
| 20260508021537 | 39 | 0 | 0.0 | 0.0 | 0.00 | 0.04 | 0.00 | 70 | 1008.3 |
| 20260508020036 | 40 | 0 | 0.0 | 0.0 | 0.00 | 0.04 | 0.00 | 69 | 1008.1 |
| 20260508014535 | 42 | 0 | 0.0 | 0.0 | 0.00 | 0.10 | 0.00 | 65 | 1008.0 |
| 20260508013034 | 43 | 0 | 0.0 | 0.0 | 0.00 | 0.10 | 0.00 | 60 | 1007.9 |
| 20260508011536 | 45 | 0 | 0.0 | 0.0 | 0.00 | 0.10 | 0.00 | 61 | 1007.8 |
| 20260508010042 | 46 | 0 | 0.0 | 0.0 | 0.00 | 0.10 | 0.00 | 48 | 1007.6 |
| 20260508004538 | 47 | 0 | 0.0 | 0.0 | 0.00 | 0.15 | 0.00 | 47 | 1007.3 |
| 20260508003037 | 48 | 0 | 0.0 | 0.0 | 0.00 | 0.15 | 0.00 | 46 | 1007.2 |
| 20260508001536 | 48 | 0 | 1.0 | 6.0 | 0.00 | 0.15 | 0.00 | 44 | 1007.0 |
| 20260508000041 | 49 | 4 | 1.0 | 4.0 | 0.00 | 0.15 | 0.00 | 42 | 1006.9 |
| 20260507234541 | 50 | 0 | 0.0 | 3.0 | 0.00 | 0.19 | 0.00 | 41 | 1006.6 |
| 20260507233036 | 51 | 0 | 1.0 | 7.0 | 0.00 | 0.19 | 0.00 | 39 | 1006.5 |
| 20260507231535 | 52 | 0 | 1.0 | 13.0 | 0.00 | 0.19 | 0.00 | 37 | 1006.3 |
| 20260507230036 | 52 | 0 | 1.0 | 7.0 | 0.00 | 0.19 | 0.00 | 37 | 1006.2 |
| 20260507224535 | 53 | 11 | 1.0 | 7.0 | 0.00 | 0.21 | 0.00 | 36 | 1006.1 |
| 20260507223034 | 53 | 1 | 1.0 | 8.0 | 0.00 | 0.21 | 0.00 | 38 | 1006.0 |
| 20260507221535 | 53 | 198 | 3.0 | 10.0 | 0.00 | 0.21 | 0.00 | 35 | 1005.9 |
| 20260507220037 | 53 | 0 | 1.0 | 9.0 | 0.00 | 0.21 | 0.00 | 36 | 1005.8 |
| 20260507214534 | 53 | 5 | 2.0 | 13.0 | 0.00 | 0.44 | 0.00 | 38 | 1005.9 |
| 20260507213038 | 52 | 348 | 1.0 | 9.0 | 0.00 | 0.44 | 0.00 | 38 | 1005.9 |
| 20260507211540 | 53 | 5 | 1.0 | 11.0 | 0.00 | 0.44 | 0.00 | 36 | 1005.8 |
| 20260507210036 | 53 | 0 | 1.0 | 9.0 | 0.00 | 0.44 | 0.00 | 36 | 1005.7 |
| 20260507204538 | 54 | 28 | 1.0 | 6.0 | 0.00 | 0.52 | 0.00 | 35 | 1005.9 |
| 20260507203036 | 55 | 201 | 1.0 | 9.0 | 0.00 | 0.52 | 0.00 | 38 | 1005.6 |
| 20260507201539 | 56 | 53 | 1.0 | 6.0 | 0.00 | 0.52 | 0.00 | 36 | 1005.8 |
| 20260507200037 | 55 | 0 | 1.0 | 9.0 | 0.00 | 0.52 | 0.00 | 37 | 1005.8 |
| 20260507194545 | 53 | 281 | 1.0 | 9.0 | 0.00 | 0.56 | 0.00 | 37 | 1005.9 |
| 20260507193037 | 53 | 165 | 1.0 | 7.0 | 0.00 | 0.56 | 0.00 | 39 | 1006.1 |
| 20260507191535 | 54 | 297 | 2.0 | 8.0 | 0.00 | 0.56 | 0.00 | 37 | 1006.1 |
| 20260507190034 | 54 | 334 | 1.0 | 10.0 | 0.00 | 0.56 | 0.00 | 37 | 1006.2 |
| 20260507184537 | 54 | 156 | 2.0 | 15.0 | 0.00 | 0.62 | 0.00 | 41 | 1006.5 |
| 20260507183042 | 54 | 333 | 3.0 | 9.0 | 0.00 | 0.62 | 0.00 | 39 | 1006.6 |
| 20260507181539 | 55 | 153 | 1.0 | 7.0 | 0.00 | 0.62 | 0.00 | 44 | 1006.6 |
| 20260507180034 | 52 | 113 | 2.0 | 9.0 | 0.00 | 0.62 | 0.00 | 40 | 1006.7 |
| 20260507174536 | 54 | 348 | 1.0 | 9.0 | 0.00 | 0.73 | 0.00 | 41 | 1006.7 |